Temperature
17 17 17 18 18 18 18 18 18 18 18 18 18 18 18 18 18 18 18 18 18 18 18 18 18 18 18 17 17 17 17 17 18 18 17 17 17 17 17 17 17 17 17
17 17 17 17 17 17 18 18 18 18 18 18 18 18 18 18 18 18 18 18 18 18 17 17 18 17 17 17 17 17 17 17 17 17 17 17 17 17 17 17 17 17 17
17 17 17 17 17 17 17 17 17 18 18 18 18 18 18 18 18 18 18 18 18 18 17 17 17 17 17 17 17 17 17 17 17 17 17 17 17 17 17 17 17 17 17
16 17 17 17 17 17 17 17 17 17 17 18 18 18 18 18 18 18 18 18 18 18 18 17 17 17 17 17 17 17 17 17 17 17 17 17 17 17 17 17 17 16 16
16 16 17 17 17 17 17 17 17 17 17 17 18 18 18 18 18 18 18 18 18 18 18 17 17 17 17 17 17 17 17 17 17 17 17 17 17 16 16 16 16 16 16
15 16 16 16 17 17 17 17 17 17 17 17 17 18 18 18 18 18 18 18 18 18 18 17 17 17 17 17 17 17 17 17 17 17 16 16 16 16 16 16 16 16 16
15 15 16 16 16 16 17 17 17 17 17 17 17 17 17 18 18 18 18 18 18 18 18 17 17 17 17 17 17 17 17 17 17 17 16 16 16 16 16 16 16 16 16
14 15 15 15 16 16 16 16 16 17 16 16 16 17 17 17 18 18 18 18 18 18 18 18 17 17 17 17 17 17 17 17 17 17 16 16 16 16 16 16 16 16 16
14 14 15 15 15 16 16 16 16 16 16 16 16 16 17 17 17 18 18 18 18 18 18 18 18 17 17 17 17 17 17 17 17 17 16 16 16 16 16 16 16 16 16
13 14 14 14 15 15 16 16 16 16 16 16 16 16 16 17 17 17 18 18 18 18 18 18 18 17 17 17 17 17 17 17 17 17 16 16 16 16 16 16 16 16 16
13 13 14 14 14 15 15 15 16 16 16 16 16 16 16 16 16 17 17 18 18 18 18 18 18 18 17 17 17 17 17 17 17 17 16 16 16 16 16 16 16 16 15
13 13 13 14 14 14 15 15 15 15 15 16 16 16 16 16 16 16 17 17 18 18 18 18 18 18 17 17 17 17 17 17 17 17 16 16 16 16 16 16 16 15 15
12 13 13 13 14 14 14 14 15 15 15 15 16 16 16 16 16 16 16 17 17 17 18 18 18 17 17 17 17 17 17 17 16 16 16 16 16 16 16 16 15 15 15
12 12 12 13 13 13 14 14 14 15 15 15 15 15 15 15 15 15 16 16 16 16 17 17 17 17 17 17 17 17 17 16 16 16 16 16 15 15 15 15 15 15 15
12 12 12 12 13 13 13 14 14 14 14 15 15 15 15 15 15 15 15 15 16 16 16 17 17 17 17 17 17 17 17 16 16 16 15 15 15 15 15 15 14 14 14
12 12 12 12 12 13 13 13 13 14 14 14 14 14 15 15 15 15 15 15 15 15 16 16 16 17 17 17 17 16 16 16 16 15 15 15 15 15 14 14 14 14 14
11 11 12 12 12 12 13 13 13 13 13 14 14 14 14 14 15 14 15 15 15 15 15 16 16 16 16 16 16 16 16 16 15 15 15 15 14 14 14 14 14 14 14
11 11 11 11 12 12 12 13 13 13 13 13 14 14 14 14 14 14 14 14 15 15 15 15 15 15 15 15 15 15 15 15 15 15 15 14 14 14 14 14 13 13 13
11 11 11 11 11 11 12 12 12 13 13 13 13 13 14 14 14 14 14 14 14 14 14 15 15 15 15 15 15 14 14 14 14 14 14 14 14 14 13 13 13 13 13
10 11 11 11 11 11 11 12 12 12 13 13 13 13 13 14 14 14 14 14 14 14 14 14 14 14 14 14 14 14 14 14 14 14 13 13 13 13 13 13 13 12 12
10 10 10 10 10 11 11 11 12 12 12 13 13 13 13 13 14 14 14 14 14 14 14 14 14 14 13 13 13 13 13 13 13 13 13 13 12 12 12 12 12 12 12
10 10 10 10 10 11 11 11 11 12 12 12 12 13 13 13 13 13 13 13 13 13 14 13 13 13 13 13 13 13 13 13 12 12 12 12 12 12 12 12 12 12 12
10 10 10 10 10 10 11 11 11 11 12 12 12 12 12 13 13 13 13 13 13 13 13 13 13 13 13 13 13 13 13 13 13 12 12 11 11 11 11 11 11 11 11
10 10 10 10 10 10 11 11 11 11 11 12 12 12 12 13 13 13 13 13 13 13 13 13 13 13 13 13 13 13 13 13 12 12 11 11 11 11 11 11 11 11 10
10 10 10 10 10 10 10 11 11 11 11 11 11 12 12 12 12 13 13 13 13 13 13 13 13 13 13 13 13 13 12 12 12 11 11 11 11 10 10 10 10 10 10
10 10 10 10 10 10 10 10 11 11 11 11 11 11 12 12 12 12 12 13 13 13 13 13 13 13 13 13 12 13 13 12 12 11 11 11 11 10 10 10 10 10 10
Wind_Speed
5 5 5 7 8 8 7 6 5 5 5 5 5 5 5 7 7 7 7 8 8 9 9 9 9 8 8 8 8 8 9 10 10 10 10 10 10 9 9 8 7 7 6
5 4 5 4 6 8 8 7 6 4 4 4 4 6 7 7 8 8 8 9 10 10 10 10 10 10 9 9 9 9 9 9 9 9 9 9 9 8 8 7 6 5 5
6 4 5 5 5 8 7 6 5 4 4 4 5 5 5 7 7 8 9 9 9 10 11 11 11 10 10 10 9 9 9 9 9 9 8 8 8 7 7 6 5 4 3
8 5 5 5 6 6 4 4 4 3 4 4 4 4 4 4 6 8 9 9 9 9 11 12 12 11 11 10 10 9 9 9 9 8 8 8 7 7 6 5 4 3 2
7 5 5 5 5 4 5 5 4 4 4 4 4 4 4 4 5 6 7 9 10 10 10 11 12 12 11 10 10 10 10 9 9 9 8 8 7 6 5 4 3 2 1
6 5 5 5 4 4 5 5 5 4 3 3 3 3 3 3 4 5 6 7 9 10 10 10 10 11 12 11 11 11 11 10 10 9 9 9 8 7 5 4 3 2 1
6 4 4 4 5 6 6 7 5 5 4 3 2 0 1 1 3 4 4 5 6 9 10 10 10 10 10 12 12 11 11 11 11 10 9 9 9 8 6 5 4 3 2
6 4 5 5 5 5 7 7 6 5 4 5 4 2 1 1 2 4 4 6 6 6 8 10 11 11 10 10 11 12 11 11 11 10 10 10 9 8 7 6 5 3 2
6 5 5 5 5 6 6 7 8 8 6 5 5 4 4 5 3 2 4 5 6 6 6 8 10 12 12 11 11 12 12 11 11 10 10 9 9 8 7 6 5 4 2
6 6 5 5 6 5 6 7 8 7 7 6 5 4 3 3 4 2 1 2 5 6 7 7 8 11 13 12 12 13 13 13 12 11 10 9 9 8 8 7 6 5 4
5 5 5 5 5 5 7 7 7 8 7 7 6 4 3 2 2 3 3 2 2 3 5 7 6 9 12 13 12 13 14 14 14 12 10 9 9 9 8 7 6 5 5
4 5 5 4 5 5 6 7 7 8 8 7 6 5 5 4 4 4 3 3 3 3 3 4 5 7 11 13 13 14 15 15 14 13 11 10 9 9 8 7 6 6 5
4 5 5 4 4 5 6 6 7 8 8 9 9 7 6 6 4 4 4 3 2 2 2 3 4 6 9 11 13 14 14 15 14 13 12 10 9 9 8 8 7 6 6
5 6 6 5 5 5 5 5 6 7 7 8 9 9 6 6 6 5 5 5 3 2 2 3 2 4 7 10 12 14 12 14 14 13 12 11 10 9 9 7 7 6 6
5 6 6 5 4 4 4 3 4 5 6 7 8 9 7 7 7 6 5 5 6 5 5 4 3 3 5 7 10 11 11 13 14 13 12 11 10 9 9 8 7 7 6
7 7 7 6 5 4 3 3 3 3 4 5 5 7 7 6 7 7 6 5 5 5 4 4 3 2 4 5 9 10 10 12 12 13 11 11 10 10 10 9 7 7 6
7 7 7 6 5 4 3 2 2 3 4 5 5 7 7 7 7 7 7 7 6 5 4 2 2 2 3 5 6 7 8 9 9 12 12 11 11 11 10 9 9 8 7
8 7 7 7 6 5 4 3 2 2 3 4 5 6 7 6 7 6 7 7 7 6 5 5 3 3 3 5 6 6 7 8 9 11 12 12 11 12 12 11 10 9 8
8 8 7 7 7 6 5 4 3 2 3 3 4 6 7 8 8 6 7 7 6 6 5 6 5 3 3 5 6 7 7 6 8 10 11 12 12 13 13 12 11 10 9
7 8 7 7 7 6 6 4 3 3 2 2 3 4 6 8 8 8 8 8 7 7 7 7 7 5 5 6 7 7 6 5 6 8 10 11 13 13 13 13 12 11 10
8 7 7 8 8 6 5 5 4 3 3 2 2 3 4 7 9 9 7 8 8 7 7 7 7 6 6 8 8 6 8 7 5 4 6 6 8 8 9 11 11 11 11
7 7 7 7 8 7 10 9 5 2 2 2 2 2 3 5 8 10 11 12 11 10 9 7 6 8 8 8 7 9 9 8 4 4 5 4 5 5 6 8 10 11 11
6 7 7 7 8 9 12 11 8 3 2 2 2 1 1 2 4 5 8 11 10 11 11 8 9 9 9 10 11 11 10 6 5 7 6 4 4 5 5 8 10 10 10
6 6 7 8 7 10 14 12 8 4 2 2 2 1 1 1 2 5 6 6 6 6 8 7 7 8 9 10 10 10 10 9 8 5 4 4 3 3 4 6 8 9 10
5 5 5 7 8 10 14 12 7 3 2 3 3 2 1 1 4 7 7 7 6 5 5 7 8 9 13 15 14 12 11 11 7 3 2 4 4 3 2 2 5 8 9
5 5 5 6 7 8 13 13 8 3 2 2 3 3 3 3 5 7 6 7 7 6 6 8 8 10 11 15 16 12 12 11 7 4 3 4 5 4 3 1 1 4 6
Wind_Direction
243 231 233 229 230 227 221 216 210 210 212 216 221 226 231 233 233 230 231 230 218 206 197 187 178 172 168 162 156 149 144 139 135 133 132 130 129 126 120 118 114 109 102
262 240 237 233 232 227 220 215 207 205 210 207 220 226 230 229 227 223 224 227 221 210 203 196 188 182 177 171 166 158 152 148 144 139 137 136 135 132 128 124 116 111 104
259 253 240 234 230 230 219 211 206 201 208 212 223 227 229 224 218 217 215 215 216 213 207 202 195 190 185 180 176 169 161 155 152 149 146 142 140 138 136 132 127 119 105
262 248 241 238 230 221 210 202 201 201 212 214 220 226 223 214 213 213 208 206 203 205 208 206 199 197 192 187 183 175 168 164 163 161 156 152 150 146 143 140 139 133 110
267 256 241 235 228 212 207 214 202 195 205 216 222 223 221 215 209 207 202 202 199 197 201 207 204 200 198 195 191 183 179 177 176 173 168 164 162 160 157 155 154 151 125
274 260 249 236 222 216 212 208 204 194 200 206 231 237 232 226 207 203 204 199 198 198 198 201 203 205 204 201 200 196 192 189 187 186 182 178 175 172 172 175 179 183 192
283 264 256 242 220 218 219 207 198 195 198 170 143 214 320 267 225 216 200 193 198 200 197 200 200 200 205 208 206 205 202 197 197 195 194 188 182 184 186 192 194 199 201
289 276 251 245 231 223 222 210 194 184 191 175 162 144 193 290 265 225 201 204 205 193 199 203 201 200 200 203 209 210 210 205 203 202 200 195 191 190 192 196 197 197 195
294 277 261 245 235 225 225 217 203 191 191 189 181 165 170 204 215 246 219 209 196 194 201 198 202 203 200 201 205 211 213 211 210 209 203 197 192 192 194 192 194 192 190
296 288 270 250 238 228 228 224 212 204 188 190 189 193 183 163 167 194 259 220 201 200 200 201 203 203 201 201 205 208 211 211 212 213 208 200 195 196 193 195 199 197 190
296 296 283 260 245 236 231 226 214 206 199 192 180 171 176 173 181 166 191 201 201 209 200 199 196 199 202 203 204 209 210 210 212 214 211 202 196 192 192 195 199 196 191
301 303 299 277 257 245 238 228 217 210 208 201 189 175 171 172 188 178 177 182 194 207 196 195 197 197 199 203 205 208 208 208 209 209 209 203 197 193 192 192 196 193 185
311 310 305 295 277 256 244 231 220 215 209 204 198 195 189 190 173 171 167 163 169 189 189 202 203 198 201 200 203 203 205 204 205 206 206 201 197 193 192 194 193 186 183
307 311 307 296 289 280 260 236 224 220 212 210 207 199 195 195 188 181 174 161 158 185 210 214 194 199 199 196 201 197 200 202 202 202 200 198 196 192 186 184 179 174 171
323 325 321 312 300 296 288 256 233 224 214 212 208 203 199 195 193 190 180 173 167 183 210 207 199 192 187 188 191 189 190 193 195 196 194 191 189 183 177 171 165 157 150
336 334 333 326 318 306 297 275 251 237 217 213 206 201 201 195 193 195 194 189 181 177 189 192 191 168 170 168 175 176 180 179 184 181 180 176 174 168 162 158 153 143 136
341 342 341 341 337 333 323 294 266 242 225 220 212 204 204 192 190 196 193 189 186 173 177 166 159 137 143 143 137 146 149 151 160 166 163 162 161 157 153 148 144 140 137
343 342 344 348 348 344 338 327 299 270 234 225 216 207 203 195 191 193 193 193 188 179 169 167 162 153 145 141 136 134 130 133 133 142 146 149 150 147 143 140 138 134 129
344 346 348 348 345 341 338 336 325 292 254 240 226 216 207 192 193 192 189 189 188 182 166 163 164 153 141 134 127 119 116 113 118 125 130 133 135 134 134 132 129 127 125
344 345 345 345 342 337 335 335 334 325 299 268 243 226 210 196 192 188 188 185 182 177 167 163 159 153 147 141 138 135 128 114 114 113 113 118 120 121 124 126 128 127 124
346 343 347 347 344 341 339 337 330 328 321 313 288 246 219 200 196 191 187 183 178 174 169 166 163 160 160 158 155 145 139 126 102 110 110 104 108 106 111 119 124 126 126
345 350 351 346 346 345 341 343 338 324 325 319 304 281 234 207 202 199 192 185 179 176 173 170 171 173 171 161 148 148 144 143 136 133 116 103 100 103 101 112 121 126 128
346 349 347 346 343 338 345 349 353 347 337 327 308 306 264 206 185 179 184 180 183 182 176 168 171 175 171 166 158 157 156 145 131 143 124 107 98 98 88 112 123 125 128
341 341 342 343 342 344 351 354 357 359 356 351 342 312 283 230 184 159 155 154 157 167 171 171 176 176 169 163 160 154 142 118 105 111 111 118 120 103 87 89 113 121 124
338 339 338 345 346 344 352 354 359 350 1 7 2 6 50 132 160 141 138 135 132 133 136 146 154 157 156 152 146 139 139 140 136 137 111 119 131 113 92 69 87 109 117
324 331 341 346 347 343 347 353 359 355 10 6 7 22 46 69 103 121 133 136 135 129 127 126 127 134 143 149 151 154 154 151 140 145 153 128 139 135 126 103 92 106 110
Height
1535 1536 1537 1539 1540 1542 1542 1543 1545 1545 1546 1548 1549 1550 1552 1554 1555 1556 1558 1558 1559 1559 1560 1561 1562 1563 1565 1566 1567 1568 1570 1571 1572 1573 1575 1576 1577 1578 1579 1580 1580 1581 1581
1531 1532 1533 1535 1536 1538 1539 1541 1542 1543 1544 1546 1547 1549 1550 1552 1554 1555 1556 1557 1558 1559 1559 1561 1562 1563 1564 1566 1567 1568 1569 1571 1572 1573 1575 1576 1577 1578 1579 1580 1580 1581 1581
1526 1527 1529 1530 1532 1534 1536 1537 1539 1540 1542 1543 1545 1547 1549 1550 1552 1553 1555 1556 1557 1558 1559 1560 1561 1562 1563 1565 1566 1568 1569 1571 1572 1573 1574 1576 1577 1578 1579 1579 1580 1581 1581
1522 1523 1524 1525 1528 1529 1531 1533 1535 1537 1539 1540 1542 1544 1546 1548 1550 1552 1553 1554 1556 1557 1558 1559 1560 1561 1563 1564 1565 1567 1568 1570 1571 1573 1574 1575 1576 1577 1578 1579 1579 1580 1580
1517 1518 1519 1521 1523 1524 1526 1529 1531 1533 1535 1537 1540 1542 1544 1545 1547 1549 1551 1552 1554 1555 1556 1557 1559 1560 1561 1563 1565 1566 1568 1569 1571 1572 1573 1574 1575 1576 1577 1578 1578 1579 1579
1513 1513 1514 1516 1518 1520 1522 1524 1526 1529 1531 1534 1536 1538 1540 1542 1544 1546 1548 1550 1552 1554 1555 1556 1557 1559 1560 1562 1563 1565 1566 1568 1569 1571 1572 1573 1574 1575 1576 1577 1577 1577 1578
1508 1509 1509 1511 1513 1514 1517 1519 1521 1524 1526 1530 1532 1534 1536 1538 1541 1543 1545 1547 1549 1551 1553 1555 1556 1557 1559 1560 1562 1563 1565 1567 1568 1570 1571 1572 1573 1574 1575 1575 1576 1576 1576
1504 1504 1505 1506 1508 1510 1511 1514 1516 1518 1521 1524 1527 1530 1532 1535 1536 1539 1541 1544 1546 1549 1551 1552 1554 1556 1557 1559 1560 1562 1563 1565 1567 1568 1569 1571 1572 1572 1573 1574 1575 1575 1575
1500 1500 1500 1501 1503 1504 1506 1508 1511 1513 1515 1519 1522 1525 1527 1529 1532 1534 1536 1540 1542 1545 1548 1550 1552 1554 1555 1557 1558 1560 1561 1563 1565 1566 1568 1569 1570 1571 1572 1573 1573 1574 1574
1495 1495 1496 1496 1498 1499 1501 1503 1505 1507 1510 1513 1516 1519 1523 1525 1527 1529 1532 1535 1538 1541 1544 1547 1549 1551 1553 1555 1557 1558 1560 1561 1563 1564 1566 1567 1568 1569 1570 1571 1572 1572 1573
1492 1492 1491 1492 1493 1494 1496 1497 1499 1502 1504 1507 1510 1513 1517 1520 1523 1524 1526 1530 1533 1536 1539 1543 1545 1548 1551 1553 1554 1556 1558 1559 1561 1562 1564 1565 1567 1568 1569 1570 1570 1571 1571
1489 1488 1488 1488 1488 1489 1490 1492 1494 1496 1499 1501 1504 1507 1510 1513 1517 1520 1522 1524 1527 1531 1534 1538 1541 1544 1547 1549 1552 1554 1556 1557 1559 1560 1562 1563 1565 1566 1567 1568 1569 1569 1570
1487 1486 1485 1484 1484 1485 1485 1487 1488 1490 1493 1495 1498 1501 1504 1507 1511 1515 1518 1521 1523 1526 1529 1532 1536 1539 1542 1545 1548 1551 1553 1555 1556 1558 1560 1561 1563 1564 1565 1566 1567 1568 1568
1485 1483 1482 1482 1481 1481 1481 1482 1483 1485 1487 1490 1492 1495 1498 1501 1505 1509 1513 1516 1519 1522 1524 1527 1530 1534 1537 1540 1544 1546 1549 1551 1553 1555 1557 1559 1560 1562 1563 1564 1565 1566 1567
1483 1482 1480 1479 1478 1478 1478 1478 1479 1480 1482 1484 1487 1490 1493 1496 1499 1503 1507 1511 1515 1517 1519 1522 1525 1529 1532 1535 1538 1541 1544 1547 1549 1552 1554 1556 1557 1559 1561 1562 1563 1564 1565
1482 1480 1478 1476 1476 1475 1475 1475 1475 1476 1478 1480 1482 1485 1488 1490 1494 1497 1501 1505 1508 1512 1514 1517 1520 1524 1527 1530 1533 1536 1539 1542 1545 1548 1550 1552 1554 1556 1558 1559 1561 1561 1562
1481 1478 1476 1474 1473 1472 1472 1472 1472 1473 1474 1476 1477 1480 1482 1485 1488 1492 1495 1498 1502 1506 1509 1512 1516 1519 1522 1526 1529 1532 1535 1538 1541 1544 1546 1549 1551 1553 1555 1556 1558 1559 1559
1481 1478 1475 1473 1472 1471 1470 1470 1470 1470 1471 1472 1473 1475 1478 1481 1483 1486 1489 1492 1496 1499 1503 1507 1511 1514 1518 1522 1525 1528 1531 1534 1537 1540 1543 1545 1547 1549 1551 1553 1555 1556 1557
1481 1478 1476 1473 1471 1470 1469 1468 1468 1468 1468 1469 1470 1472 1474 1476 1478 1481 1484 1487 1491 1494 1497 1502 1505 1510 1513 1517 1520 1524 1527 1530 1534 1536 1539 1541 1544 1546 1548 1550 1551 1553 1554
1481 1478 1476 1473 1471 1470 1468 1467 1466 1466 1466 1466 1467 1468 1470 1472 1474 1477 1480 1482 1486 1489 1492 1496 1500 1504 1508 1512 1516 1520 1524 1527 1530 1533 1536 1538 1541 1543 1545 1547 1548 1550 1551
1481 1479 1476 1474 1471 1469 1468 1467 1466 1465 1464 1464 1464 1465 1466 1468 1470 1473 1476 1478 1482 1484 1487 1491 1495 1499 1503 1507 1511 1516 1520 1524 1527 1530 1533 1536 1538 1540 1542 1544 1546 1547 1549
1482 1479 1476 1474 1472 1469 1468 1467 1465 1464 1463 1463 1462 1463 1464 1465 1467 1470 1472 1475 1478 1480 1483 1486 1490 1494 1498 1503 1507 1512 1516 1520 1525 1529 1531 1534 1536 1538 1540 1542 1544 1545 1547
1483 1480 1477 1474 1471 1469 1468 1466 1465 1463 1462 1462 1461 1461 1462 1463 1465 1467 1470 1472 1475 1478 1481 1484 1487 1490 1494 1499 1503 1508 1513 1518 1521 1525 1529 1532 1535 1537 1539 1541 1543 1544 1545
1483 1480 1477 1474 1472 1470 1468 1466 1464 1463 1461 1460 1460 1460 1460 1461 1463 1465 1467 1470 1472 1475 1478 1481 1485 1488 1492 1497 1502 1506 1511 1516 1520 1524 1528 1530 1533 1536 1538 1540 1542 1543 1544
1484 1481 1478 1475 1472 1470 1468 1466 1464 1462 1461 1460 1459 1459 1459 1460 1461 1463 1466 1468 1471 1474 1477 1480 1483 1487 1490 1495 1500 1504 1509 1513 1517 1521 1525 1528 1531 1534 1537 1539 1540 1541 1542
1485 1482 1479 1476 1473 1470 1468 1466 1464 1462 1461 1460 1460 1459 1459 1459 1461 1463 1465 1467 1470 1473 1476 1479 1483 1486 1490 1494 1499 1503 1507 1511 1515 1519 1523 1527 1529 1532 1535 1537 1539 1540 1541